Weather History for KARB - September, 2011

Change the Weather History Date:

Wednesday, September 28, 2011

  Actual Average Record
Temperature  
Mean Temperature 55 °F -  
Max Temperature 62 °F 65 °F 84 °F (1999)
Min Temperature 48 °F 39 °F 34 °F (2006)
Degree Days  
Heating Degree Days 10    
Growing Degree Days 5 (Base 50)    
Moisture  
Dew Point 54 °F    
Average Humidity 97    
Maximum Humidity 100    
Minimum Humidity 80    
Precipitation  
Precipitation 0.17 in - - ()
Sea Level Pressure  
Sea Level Pressure 29.79 in    
Wind  
Wind Speed 3 mph (SSE)    
Max Wind Speed 10 mph    
Max Gust Speed -    
Visibility 5 miles    
Events Fog , Rain    
Averages and records for this station are not official NWS values.
T = Trace of Precipitation, MM = Missing Value Source: NWS Daily Summary

Daily Weather History Graph

Daily Weather History Graph

Search for Another Location

Airport or City:

Trip Planner

Search our weather history database for the weather conditions in past years. The results will help you decide how hot, cold, wet, or windy it might be!

Date:

Astronomy

Sep. 28, 2011 Rise Set
Actual Time 7:28 AM EDT 7:22 PM EDT
Civil Twilight 7:00 AM EDT 7:50 PM EDT
Nautical Twilight 6:27 AM EDT 8:22 PM EDT
Astronomical Twilight 5:54 AM EDT 8:55 PM EDT
Moon 8:59 AM EDT (9/28) 7:47 PM EDT (9/28)
Length of Visible Light 12h 49m
Length of Day
11h 53m
New Moon, 2% of the Moon is Illuminated
Sep 28
New Moon
Oct 3
First Quarter
Oct 11
Full
Oct 19
Last Quarter
Oct 26
New

Hourly Weather History & Observations

Time (EDT) Temp. Dew Point Humidity Pressure Visibility Wind Dir Wind Speed Gust Speed Precip Events Conditions
12:53 AM 55.0 °F 55.0 °F 100% 29.81 in 8.0 mi East 3.5 mph - 0.01 in   Overcast
1:53 AM 55.0 °F 55.0 °F 100% 29.79 in 9.0 mi ESE 3.5 mph - N/A   Overcast
2:53 AM 54.0 °F 54.0 °F 100% 29.80 in 9.0 mi SE 3.5 mph - N/A   Overcast
3:53 AM 54.0 °F 54.0 °F 100% 29.79 in 5.0 mi Calm Calm - N/A   Clear
4:08 AM 53.6 °F 53.6 °F 100% 29.80 in 4.0 mi Calm Calm - N/A   Partly Cloudy
5:53 AM 54.0 °F 54.0 °F 100% 29.80 in 5.0 mi Calm Calm - N/A   Overcast
6:53 AM 54.0 °F 54.0 °F 100% 29.80 in 5.0 mi ESE 3.5 mph - N/A   Overcast
7:53 AM 55.0 °F 55.0 °F 100% 29.81 in 4.0 mi SE 3.5 mph - 0.00 in   Overcast
8:53 AM 55.9 °F 55.9 °F 100% 29.81 in 5.0 mi ESE 3.5 mph - N/A   Overcast
9:27 AM 55.4 °F 55.4 °F 100% 29.81 in 5.0 mi SSW 4.6 mph - N/A   Overcast
9:48 AM 55.4 °F 55.4 °F 100% 29.82 in 6.0 mi South 4.6 mph - N/A   Overcast
9:53 AM 55.9 °F 55.0 °F 97% 29.82 in 6.0 mi Variable 4.6 mph - N/A   Overcast
10:53 AM 55.9 °F 55.0 °F 97% 29.82 in 7.0 mi South 4.6 mph - N/A   Overcast
11:23 AM 55.4 °F 55.4 °F 100% 29.82 in 2.5 mi South 4.6 mph - 0.01 in Rain Light Rain
11:30 AM 55.4 °F 55.4 °F 100% 29.82 in 6.0 mi South 3.5 mph - 0.01 in Rain Light Rain
11:53 AM 55.9 °F 55.9 °F 100% 29.82 in 7.0 mi South 5.8 mph - 0.01 in   Overcast
12:33 PM 57.2 °F 55.4 °F 94% 29.81 in 10.0 mi South 4.6 mph - N/A   Mostly Cloudy
12:53 PM 57.9 °F 55.0 °F 90% 29.81 in 10.0 mi SSE 5.8 mph - N/A   Mostly Cloudy
1:03 PM 57.2 °F 55.4 °F 94% 29.81 in 10.0 mi SSE 5.8 mph - N/A   Overcast
1:53 PM 60.1 °F 55.0 °F 83% 29.80 in 10.0 mi SE 8.1 mph - N/A   Overcast
2:19 PM 57.2 °F 55.4 °F 94% 29.79 in 8.0 mi South 3.5 mph - 0.01 in Rain Light Rain
2:53 PM 59.0 °F 57.0 °F 93% 29.78 in 10.0 mi Calm Calm - 0.02 in   Overcast
3:20 PM 60.8 °F 57.2 °F 88% 29.78 in 10.0 mi SW 10.4 mph - N/A   Mostly Cloudy
3:53 PM 62.1 °F 55.9 °F 80% 29.78 in 10.0 mi SSE 5.8 mph - N/A   Mostly Cloudy
4:53 PM 60.1 °F 57.0 °F 90% 29.78 in 9.0 mi SSE 9.2 mph - 0.02 in Rain Light Rain
5:13 PM 59.0 °F 55.4 °F 88% 29.78 in 7.0 mi SSE 9.2 mph - 0.00 in   Mostly Cloudy
5:53 PM 57.9 °F 54.0 °F 87% 29.78 in 10.0 mi SSW 9.2 mph - 0.00 in   Mostly Cloudy
6:53 PM 55.9 °F 55.0 °F 97% 29.79 in 4.0 mi Calm Calm - 0.05 in Rain Rain
7:31 PM 55.4 °F 55.4 °F 100% 29.78 in 7.0 mi Calm Calm - 0.05 in Rain Light Rain
7:39 PM 55.4 °F 55.4 °F 100% 29.78 in 7.0 mi SSE 3.5 mph - 0.05 in Rain Light Rain
7:53 PM 55.0 °F 54.0 °F 96% 29.78 in 10.0 mi Calm Calm - 0.06 in Rain Light Rain
8:53 PM 53.1 °F 53.1 °F 100% 29.78 in 3.0 mi Calm Calm - 0.00 in   Mostly Cloudy
9:31 PM 51.8 °F 51.8 °F 100% 29.78 in 2.5 mi Calm Calm - N/A   Partly Cloudy
9:41 PM 51.8 °F 51.8 °F 100% 29.78 in 1.2 mi Calm Calm - N/A   Scattered Clouds
9:53 PM 51.1 °F 51.1 °F 100% 29.78 in 1.0 mi Calm Calm - N/A   Mostly Cloudy
10:28 PM 51.8 °F 51.8 °F 100% 29.78 in 2.0 mi Calm Calm - N/A   Mostly Cloudy
10:39 PM 51.8 °F 51.8 °F 100% 29.78 in 1.2 mi Calm Calm - N/A   Mostly Cloudy
10:53 PM 50.0 °F 50.0 °F 100% 29.78 in 2.0 mi Calm Calm - N/A   Overcast
10:57 PM 50.0 °F 50.0 °F 100% 29.78 in 1.2 mi Calm Calm - N/A   Overcast
11:05 PM 50.0 °F 50.0 °F 100% 29.78 in 0.5 mi Calm Calm - N/A Fog Fog
11:20 PM 50.0 °F 50.0 °F 100% 29.78 in 1.2 mi Calm Calm - N/A   Mostly Cloudy
11:29 PM 51.8 °F 51.8 °F 100% 29.78 in 0.2 mi Calm Calm - N/A Fog Fog
11:41 PM 51.8 °F 51.8 °F 100% 29.78 in 1.5 mi Calm Calm - N/A   Mostly Cloudy
11:47 PM 48.2 °F 48.2 °F 100% 29.78 in 0.8 mi Calm Calm - N/A   Mostly Cloudy
11:53 PM 50.0 °F 50.0 °F 100% 29.78 in 0.5 mi Calm Calm - N/A Fog Fog